CZ-6A DEB, 54963

Orbit data source: Space-Track

CZ-6A DEB, 54963 is space debris in SSO originally from a launch on Fri, 11 Nov 2022 UTC launched from the Taiyaun Space Center, China (TSC). Debris objects in space refer to the collection of defunct objects orbiting the Earth. Examples of debris include non-operational satellites, rocket bodies, and fragments generated from explosions, collisions, or faulty payload assembly.

Loading next visibility...
Identifier
54963, 2022-151TC
Orbit
SSO
Country
Flag of CNCN / PRC
Related business
Manufacturer
SAST
Mission
Spacecraft
Bus & Motor
Unknown
Mass
Unknown
Launch date (UTC)
2022-11-11 (3 years ago)
Launch vehicle
Unknown
Launch site
Taiyaun Space Center, China (TSC)
Object type
Payload
Rocket body
Debris
Shape & HBR
Unknown shape, 0.1 m
Radar Cross Section
Small (<0.1 m²)

Expand to show TLE details & history
Last TLE update: 9 hours ago

TLE from 9 hours ago
0 CZ-6A DEB
1 54963U 22151TC  26130.46395263 -.00000179  00000-0 -90652-4 0  9993
2 54963  98.8801 102.8923 0137301 190.2067 169.6302 13.97047324177831
Epoch: 2026-05-10T11:08Z
TLE epoch observation values (Epoch: 2026-05-10T11:08:05.507Z)
Latitude
-0.00003°
Longitude
67.60269°
Altitude
1,005.33 km
Speed
7.299 km/s
True Right ascension
06h 51m 34s
True Declination
0° 00' 00"
Sunlit
Object was in daylight at epoch
Visualization orbit readout
Latitude
Unknown
Longitude
Unknown
Altitude
Unknown
Speed
Unknown
Apparent Right ascension
Unknown
Apparent Declination
Unknown
Sunlit
N/A
Visualization observer readout
Local Sidereal Time
04:33:55
Azimuth
Unknown
Elevation
Unknown
Doppler factor
Unknown
Orbital elements
Apogee altitude
1,001.181 km
Perigee altitude
801.288 km
Semi-major axis
7,279.371 km
Eccentricity
0.01373
Inclination
98.8801°
RAAN
102.8923°
Arg. of periapsis
190.2067°
True anomaly
169.9087°
Mean anomaly
169.6302°
Eccentric anomaly
169.76991°
Mean motion
3.49464 °/min
Orbital period
103.01 mins
BSTAR
-0.000090652
Loading maneuver chart data...
Computing Atmospheric mass density...
Loading historical data...
Loading historical data...
Loading historical data...
Loading historical data...
Loading historical data...
Loading historical data...
Loading historical data...

Documentation

Showing up to 5 results
|